Вернуться в каталог

STARLINK-11601

АктивенСвязьVLEO
NORAD 63110·PAYLOAD·🇺🇸 United States

Запущен Feb 27, 2025 с Cape Canaveral Space Force Station

Loading…

Ближайшие Пролёты (ближайшие 24 часа)

TLE

СвежийSource: CelesTrak SupGP

Эпоха: Sep 14, 2026, 23:03 UTC

1 63110C 25039G   26257.96090278 -.00025963  00000+0 -20163-3 0  2571
2 63110  43.0004 175.9684 0001542 264.6607  74.5450 15.70854070    10

Отслеживайте STARLINK-11601 в реальном времени с AllMySat

Download on the App Store